Precipitable_Water
1.09 1.15 1.13 1.12 1.13 1.16 1.15 1.07 1.03 0.97 0.92 0.91 0.88 0.84 0.78 0.76 0.76 0.74 0.75 0.78 0.84 0.82 0.85 0.86 0.85 0.84 0.97
1.06 1.07 1.07 1.12 1.08 1.09 1.12 1.11 0.97 0.95 0.95 0.91 0.83 0.79 0.78 0.76 0.75 0.74 0.75 0.78 0.79 0.87 0.89 0.88 0.87 0.90 0.91
1.02 1.11 1.09 1.13 1.07 1.12 1.12 1.01 0.96 0.97 0.94 0.85 0.80 0.78 0.76 0.73 0.75 0.75 0.75 0.78 0.83 0.89 0.88 0.89 0.90 0.92 0.91
1.07 1.06 1.11 1.14 1.14 1.10 1.03 0.97 0.96 0.92 0.85 0.81 0.78 0.75 0.72 0.72 0.74 0.74 0.74 0.77 0.80 0.83 0.86 0.90 0.90 0.88 0.90
1.07 1.08 1.12 1.09 1.08 1.09 0.99 0.95 0.90 0.86 0.79 0.76 0.72 0.69 0.68 0.69 0.72 0.72 0.74 0.77 0.80 0.81 0.85 0.90 0.91 0.90 0.89
1.06 1.06 1.08 1.13 1.09 1.03 0.96 0.86 0.75 0.82 0.73 0.69 0.70 0.64 0.65 0.67 0.71 0.73 0.74 0.77 0.79 0.82 0.83 0.86 0.89 0.89 0.86
1.13 1.14 1.12 1.13 1.09 1.01 0.95 0.83 0.73 0.75 0.73 0.64 0.66 0.61 0.65 0.66 0.69 0.72 0.75 0.78 0.80 0.80 0.81 0.83 0.85 0.85 0.83
1.24 1.21 1.19 1.17 1.12 1.04 0.91 0.82 0.80 0.77 0.74 0.61 0.66 0.61 0.63 0.65 0.67 0.72 0.76 0.78 0.78 0.78 0.78 0.78 0.79 0.80 0.81
1.30 1.24 1.21 1.15 1.05 0.92 0.85 0.78 0.68 0.67 0.70 0.64 0.62 0.60 0.62 0.63 0.65 0.69 0.71 0.74 0.75 0.75 0.75 0.75 0.75 0.76 0.76
1.16 1.15 1.12 1.05 1.01 0.92 0.81 0.71 0.67 0.63 0.69 0.64 0.62 0.61 0.55 0.61 0.61 0.62 0.65 0.70 0.73 0.74 0.73 0.72 0.71 0.71 0.70
1.10 1.03 1.02 0.99 0.93 0.85 0.82 0.76 0.71 0.66 0.71 0.68 0.63 0.60 0.55 0.53 0.58 0.60 0.60 0.61 0.65 0.67 0.69 0.70 0.70 0.71 0.65
1.00 0.96 0.91 0.88 0.85 0.84 0.84 0.82 0.79 0.72 0.72 0.67 0.61 0.56 0.51 0.47 0.44 0.49 0.51 0.52 0.51 0.52 0.56 0.60 0.65 0.69 0.69
0.94 0.91 0.87 0.85 0.86 0.83 0.82 0.82 0.76 0.71 0.66 0.63 0.61 0.58 0.53 0.47 0.43 0.42 0.40 0.41 0.41 0.39 0.41 0.43 0.47 0.55 0.59
0.89 0.88 0.86 0.85 0.82 0.80 0.76 0.73 0.66 0.62 0.60 0.57 0.55 0.53 0.48 0.47 0.46 0.41 0.40 0.35 0.38 0.37 0.36 0.34 0.34 0.37 0.39
0.82 0.81 0.80 0.79 0.76 0.77 0.74 0.69 0.62 0.57 0.54 0.55 0.55 0.52 0.49 0.46 0.42 0.40 0.39 0.39 0.39 0.37 0.35 0.31 0.31 0.31 0.32
0.78 0.78 0.74 0.74 0.73 0.74 0.70 0.67 0.61 0.55 0.54 0.54 0.53 0.50 0.49 0.47 0.46 0.40 0.41 0.40 0.41 0.39 0.36 0.31 0.28 0.31 0.31
0.72 0.72 0.71 0.72 0.71 0.69 0.67 0.64 0.58 0.55 0.53 0.54 0.53 0.48 0.42 0.41 0.44 0.47 0.40 0.41 0.41 0.39 0.37 0.34 0.29 0.30 0.31
Wind_Speed
32 32 32 32 32 31 32 32 31 32 34 34 32 30 30 29 29 28 28 27 26 25 23 22 20 18 16
34 34 34 34 34 34 34 33 34 35 35 32 31 30 30 30 29 29 28 27 26 24 22 21 20 18 18
36 35 35 35 35 35 35 35 36 34 32 31 30 30 30 29 29 28 27 26 25 23 23 22 20 20 20
38 37 37 37 37 36 36 36 35 33 31 31 29 29 28 29 28 27 26 25 24 23 22 22 21 21 19
40 40 39 39 38 38 37 37 36 34 33 31 30 29 28 27 26 25 24 24 23 22 22 22 22 20 20
43 43 41 39 39 39 35 36 33 33 31 31 29 29 27 26 25 25 24 23 22 21 22 22 20 20 21
44 42 43 41 40 37 36 32 32 31 30 30 29 27 26 26 25 25 24 24 23 23 23 22 21 22 21
46 45 43 40 37 37 34 32 31 29 29 28 27 26 26 26 26 26 25 25 25 24 23 23 22 21 21
43 41 37 37 37 35 33 31 30 29 29 28 28 28 27 27 27 26 26 25 24 24 24 23 23 23 23
42 38 37 36 35 34 33 31 29 29 29 28 28 27 27 27 26 26 26 25 24 24 23 22 22 22 22
40 35 37 36 35 34 33 33 31 31 30 29 28 27 27 27 25 25 24 23 23 24 23 23 22 23 22
39 38 36 37 38 36 34 34 33 32 30 29 28 27 25 25 25 25 25 24 24 23 23 23 23 23 22
43 42 41 40 38 37 34 32 31 30 29 29 28 27 27 26 26 25 24 25 25 25 24 23 23 22 22
46 43 41 41 38 36 36 35 32 31 30 30 29 29 29 29 28 27 27 25 24 23 24 24 23 23 22
48 47 46 42 40 38 36 33 32 32 31 30 29 29 29 28 27 27 26 25 24 24 24 23 23 22 23
51 48 47 46 43 39 36 35 33 31 29 29 27 26 26 27 27 26 25 25 24 23 23 22 22 22 23
51 50 47 43 40 36 33 32 32 30 29 28 27 26 24 25 24 25 24 23 23 22 22 22 21 21 22
Wind_Direction
261 263 266 270 273 277 282 285 289 293 296 295 290 288 289 290 291 292 292 290 289 290 290 293 298 299 297
261 263 265 269 272 277 280 283 289 293 295 291 289 287 287 288 289 290 289 288 287 285 286 288 290 293 295
261 263 266 267 272 275 278 282 287 291 291 289 289 287 286 287 287 288 288 286 284 282 284 284 285 289 294
260 263 266 268 270 273 276 280 285 287 287 288 288 287 286 285 286 286 286 284 283 281 282 279 283 286 287
261 263 265 269 267 272 273 278 281 282 284 285 285 286 285 285 285 285 283 283 281 279 278 280 281 278 286
261 262 263 265 268 270 270 277 278 279 281 281 282 284 282 282 283 283 281 279 280 280 280 282 278 278 284
258 260 264 263 265 261 269 270 275 277 278 279 279 280 280 280 280 281 281 280 280 280 281 280 278 281 281
258 262 265 258 257 262 264 268 273 275 277 278 277 277 279 279 279 279 280 280 278 280 280 278 278 277 276
256 258 255 253 255 257 260 263 269 273 274 276 278 277 278 278 279 279 279 280 278 279 278 278 277 275 274
252 251 251 252 248 253 255 261 266 272 273 274 278 278 279 278 277 279 278 278 277 278 279 276 274 273 272
245 246 249 250 249 251 254 259 264 271 271 272 275 274 276 278 279 280 280 279 280 279 277 275 273 271 270
243 245 250 250 251 253 255 259 264 270 268 270 276 274 274 276 278 278 277 278 279 278 276 274 272 269 266
247 248 251 248 250 252 256 261 264 266 266 269 273 273 274 275 277 276 277 276 277 275 274 273 271 266 262
252 249 248 251 250 252 258 257 260 262 265 269 270 271 272 273 273 273 274 274 275 273 271 270 267 263 259
249 249 247 248 251 252 253 252 257 260 264 267 269 270 271 270 269 270 270 271 270 270 269 268 266 262 257
246 248 247 249 249 250 248 250 252 257 261 264 266 269 270 269 266 268 267 266 267 267 266 266 265 260 257
246 243 246 244 239 241 239 243 251 256 258 260 263 268 270 270 268 262 262 262 263 265 265 263 263 260 259